This is the latest recevied weather packets stored in our database for station/object N9BLE. If no packets are shown the sender has not sent any weather packets the latest 10 day(s).
| Time | Temp. | Humidity | Pressure | Rain* | Wind** | Luminosity | Snow |
|---|---|---|---|---|---|---|---|
| 1777637801 | 4.44° C | 96% | 1020.3 hPa | 0 mm | - | 44 W/m² | - |
| 1777637497 | 4.44° C | 96% | 1020.3 hPa | 0 mm | - | 32 W/m² | - |
| 1777637195 | 4.44° C | 96% | 1020.2 hPa | 0 mm | - | 31 W/m² | - |
| 1777636892 | 4.44° C | 96% | 1019.9 hPa | 0 mm | - | 23 W/m² | - |
| 1777636587 | 4.44° C | 96% | 1019.8 hPa | 0 mm | - | 22 W/m² | - |
| 1777636284 | 3.89° C | 96% | 1019.8 hPa | 0 mm | - | 21 W/m² | - |
| 1777635984 | 3.89° C | 96% | 1020 hPa | 0 mm | - | 17 W/m² | - |
| 1777635680 | 3.89° C | 96% | 1019.9 hPa | 0 mm | - | 17 W/m² | - |
| 1777635377 | 3.89° C | 96% | 1019.8 hPa | 0 mm | - | 15 W/m² | - |
| 1777635073 | 3.89° C | 96% | 1019.5 hPa | 0 mm | - | 14 W/m² | - |
| 1777634769 | 3.89° C | 97% | 1019.4 hPa | 0 mm | - | 11 W/m² | - |
| 1777634467 | 3.89° C | 97% | 1019.3 hPa | 0 mm | - | 9 W/m² | - |
| 1777634163 | 3.89° C | 97% | 1019.4 hPa | 0 mm | - | 8 W/m² | - |
| 1777633860 | 3.89° C | 97% | 1019.3 hPa | 0 mm | - | 5 W/m² | - |
| 1777633558 | 3.89° C | 96% | 1019.4 hPa | 0 mm | - | 4 W/m² | - |
| 1777633255 | 3.33° C | 96% | 1019.3 hPa | 0 mm | - | 4 W/m² | - |
| 1777632953 | 3.33° C | 96% | 1019.1 hPa | 0 mm | - | 3 W/m² | - |
| 1777632648 | 3.33° C | 96% | 1019.2 hPa | 0 mm | - | 2 W/m² | - |
| 1777632345 | 3.33° C | 96% | 1019.2 hPa | 0 mm | - | 1 W/m² | - |
| 1777632043 | 3.33° C | 96% | 1019.2 hPa | 0 mm | - | 1 W/m² | - |
| 1777631741 | 3.33° C | 95% | 1019.2 hPa | 0 mm | - | 0 W/m² | - |
| 1777631438 | 3.33° C | 95% | 1019 hPa | 0 mm | - | 0 W/m² | - |
| 1777631134 | 3.33° C | 95% | 1019.1 hPa | 0 mm | - | 0 W/m² | - |
| 1777630832 | 3.89° C | 95% | 1019 hPa | 0 mm | - | 0 W/m² | - |
| 1777630528 | 3.89° C | 95% | 1019.1 hPa | 0 mm | - | 0 W/m² | - |
* Rain latest hour (hover to see other rain measurements)
** Current wind speed in m/s (hover to see current wind gust speed)